Regional Weather Roundup
Issued by NWS Wakefield, VA

Home | Current Version | Previous Version | Graphics & Text | Print | Product List | Glossary On
Versions: 1 2 3 4 5 6 7 8 9 10 11 12 13 14 15 16 17 18 19 20 21 22 23 24 25 26 27 28 29 30 31 32 33 34 35 36 37 38 39 40 41 42 43 44 45 46 47 48 49 50
000
ASUS41 KAKQ 280614
RWRAKQ

REGIONAL WEATHER ROUNDUP
NATIONAL WEATHER SERVICE WAKEFIELD VA
200 AM EDT FRI AUG 28 2015

Note: "fair" indicates few or no clouds below 12,000 feet with no
significant weather and/or obstructions to visibility. * = Denotes
station may not report precipitation (e.g., rain,snow,etc.),
thunder or fog.

VAZ042-051-052>054-056-280700-
NORTHERN VIRGINIA

CITY           SKY/WX    TMP DP  RH WIND       PRES   REMARKS
WASH NATIONAL  FAIR      68  60  75 N3        30.17S
DULLES         MOCLDY    62  57  83 CALM      30.17S
FORT BELVOIR   MOCLDY    59  58  94 CALM      30.16S
QUANTICO       MOCLDY    64  59  83 NW7       30.17S
FREDERICKSBRG* MOCLDY    64  60  88 CALM      30.15F
STAFFORD*      CLOUDY    59  57  92 CALM      30.20S
WARRENTON      FAIR      61  60  97 CALM      30.17S
CULPEPER*      FAIR      61  58  90 CALM      30.18S
MANASSAS*      CLOUDY    61  59  94 CALM      30.17S
LEESBURG*      MOCLDY    61  61 100 CALM      30.19S
WINCHESTER     CLOUDY    59  54  82 CALM      30.18F
FRONT ROYAL*   CLOUDY    59  55  88 CALM      30.17F
LURAY*         MOCLDY    59  55  88 CALM      30.19S
$$

VAZ048-049-060>072-079>083-280700-
CENTRAL AND SOUTH CENTRAL VIRGINIA

CITY           SKY/WX    TMP DP  RH WIND       PRES   REMARKS
RICHMOND       FAIR      64  60  87 CALM      30.15S
CHESTERFIELD*  FAIR      61  48  63 CALM      30.16S
PETERSBURG*    FAIR      59  59 100 CALM      30.15F FOG
HANOVER        FAIR      59  58  96 CALM      30.17S
TAPPAHANNOCK*  FAIR      58  55  90 CALM      30.16S
QUINTON*       FAIR      59  59  99 CALM      30.15F
CHARLOTTSVILLE CLOUDY    65  59  81 CALM      30.17F
GORDONSVILLE*  CLOUDY    64  60  88 CALM      30.16F
ORANGE*        MOCLDY    64  59  82 CALM      30.18S
LOUISA*        MOCLDY    61  57  88 CALM      30.16S
BUMPASS*       CLOUDY    61  58  90 CALM      30.16S
FARMVILLE*     FAIR      62  62  98 CALM      30.15S
CREWE*         MOCLDY   N/A N/A N/A CALM      30.15F
FORT PICKETT*  FAIR      60  60  97 CALM      30.15F
CHASE CITY*    FAIR      65  65 100 CALM      30.15S
CLARKSVILLE*   FAIR      63  63 100 CALM      30.14S
SOUTH HILL*    FAIR      60  59  96 CALM      30.20F
LAWRENCEVILLE* FAIR      63  61  94 CALM      30.14F
EMPORIA*       FAIR      57  57 100 CALM      30.15F FOG
$$

VAZ088>098-280700-
SOUTHEAST VIRGINIA

CITY           SKY/WX    TMP DP  RH WIND       PRES   REMARKS
NORFOLK        MOCLDY    75  57  53 NE9       30.12F
VIRGINIA BEACH CLOUDY    73  61  65 CALM      30.11F
NORFOLK NAVAL  MOCLDY    75  57  53 NE7       30.14F
WEST POINT*    FAIR      62  59  91 CALM      30.16S
SALUDA*        FAIR      62  59  91 CALM      30.13F
NEWPORT NEWS   FAIR      62  58  86 CALM      30.13F
LANGLEY AFB    FAIR      65  61  87 NW2       30.12F
FORT EUSTIS    FAIR      66  66 100 CALM      30.12S
WILLIAMSBURG*  FAIR      66  64  94 CALM      30.15S
HR EXEC AP*      N/A     63  61  94 CALM      30.15S
FRANKLIN*      FAIR      63  62  96 CALM      30.14S
WAKEFIELD      FAIR      61  58  90 CALM      30.14S
$$

VAZ020-022-025-037-045-280700-
WEST CENTRAL AND SOUTHWEST VIRGINIA

CITY           SKY/WX    TMP DP  RH WIND       PRES   REMARKS
STAUNTON*      FAIR      66  56  72 CALM      30.21S
WAYNESBORO*    FAIR      63  56  78 CALM      30.20F
HOT SPRINGS VA FAIR      58  55  88 E7        30.25F
LYNCHBURG      FAIR      63  59  87 CALM      30.18S
DANVILLE       FAIR      62  59  90 CALM      30.15S
SOUTH BOSTON*  FAIR      60  59  95 CALM      30.15S
MARTINSVILLE   FAIR      61  61 100 CALM      30.19S
ROANOKE        FAIR      65  59  81 CALM      30.19S
BLACKSBURG     FAIR      60  59  98 CALM      30.23F
DUBLIN*        CLOUDY    66  63  90 CALM      30.21F
MARION*        FAIR      60  58  93 CALM      30.23F
HILLSVILLE*    CLOUDY    64  58  82 CALM      30.21S
RICHLANDS*     FAIR      60  30  31 CALM      30.19F
WISE*          FAIR      57  57 100 CALM      30.21S
ABINGDON*      FAIR      64  57  76 CALM      30.17F
$$

MDZ021>025-VAZ099-100-280700-
SOUTHERN MARYLAND AND THE DELMARVA PENINSULA

CITY           SKY/WX    TMP DP  RH WIND       PRES   REMARKS
PATUXENT RIVER FAIR      60  58  92 W3        30.15S
BAY BRIDGE APT   N/A     68  55  64 CALM      30.15F
LEONARDTOWN    FAIR      59  57  94 CALM      30.16F
DOVER          FAIR      63  59  85 NW5       30.13S
GEORGETOWN     FAIR      60  57  89 CALM      30.15S
EASTON         NOT AVBL
CAMBRIDGE      FAIR      59  55  88 CALM      30.14S
SALISBURY      FAIR      59  58  96 CALM      30.14S
OCEAN CITY     FAIR      62  60  93 NW3       30.13F
WALLOPS ISLAND FAIR      63  62  97 NW5       30.14S
ACCOMACK*      FAIR      57  57 100 CALM      30.13F
$$

NCZ012>017-030>032-280700-
NORTH CENTRAL AND EASTERN NORTH CAROLINA

CITY           SKY/WX    TMP DP  RH WIND       PRES   REMARKS
ROANOKE RAPIDS FAIR      59  59 100 CALM      30.13F
RALEIGH        MOCLDY    65  60  84 CALM      30.13F
ELIZABETH CITY CLOUDY    73  64  73 NE7       30.11F
AHOSKIE*       MOCLDY    64  63  94 CALM      30.13F
EDENTON*       FAIR      67  63  84 NE3       30.11F
CURRITUCK*     CLOUDY    74  61  63 N3        30.12F
KILL DEVIL HLS CLOUDY    75  62  63 NE8       30.09S
MANTEO         CLOUDY    74  64  69 NE10      30.10F
CAPE HATTERAS  FAIR      73  68  84 NE7       30.08R
TARBORO*       FAIR      62  61  96 CALM      30.13F
GOLDSBORO      FAIR      67  65  93 CALM      30.10F
WASHINGTON     MOCLDY    69  63  81 NE5       30.11S
GREENVILLE     FAIR      64  64 100 N3        30.13S
NEW BERN       CLOUDY    71  64  78 NE8       30.11S
WILMINGTON     MOCLDY    70  65  84 NE8       30.07F
$$

VAZ048-280700-
ELSEWHERE

CITY           SKY/WX    TMP DP  RH WIND       PRES   REMARKS
HARRISBURG PA  FAIR      63  58  83 CALM      30.16S
BALTIMORE      FAIR      61  58  90 CALM      30.16S
ANNAPOLIS      FAIR      69  64  84 NW6       30.15S
ANDREWS AFB    FAIR      62  57  84 CALM      30.16S
PHILADELPHIA   FAIR      67  54  63 N6        30.15F
HENDERSON NC   FAIR      63  59  86 CALM      30.14F
GREENSBORO     FAIR      67  60  78 CALM      30.14F
ROCKY MOUNT    FAIR      63  61  93 CALM      30.13S
$$

VAZ100-280700-
MARINE

STATION/POSITION TIME  TEMP    WIND        PRES    WAVE   SWELL
                       AIR SEA DIR/SP/G            HT/PER HT/PER
                 (UTC) (F)     (DEG/KT/KT) (MB)    (FT/S) (FT/S)
BRANDYWINE LGT   0500   73 75   20/ 11/ 12 1020.9R
CAPE MAY NJ      0500   71 79   40/  1/  3 1020.3R
LEWES DE         0500   74 77   10/ 10/ 11 1020.5R
15NM E FENWICK I 0550   75 78  340/ 12/ 14 1020.2F   3/ 9   2/ 9
OCEAN-CITY-INLET 0500   69 77  330/  4/  5 1019.6S
WACHAPREAGUE VA  0500   67 78  300/  1/  3 1020.6R
GOOSES REEF MD   0600   75 79   50/  8/ 10 1021.8S
COVE POINT MD    0500   73      80/  8/ 11 1021.6R
SOLOMONS ISLAND  0500      80                N/A
BISHOPS HEAD MD  0500   71 78   20/  6/  9 1019.9R
PINEY POINT MD   0500           50/  5/  6   N/A
POTOMAC MD       0600   76 79   50/ 10/ 12 1019.6F   0
CAMBRIDGE MD     0500   72 80   20/  7/  8 1020.0R
LEWISETTA VA     0500   75 79   40/  4/  6 1020.3S
RAPPAHANNOCK LGT 0500           50/ 11/ 12 1021.0R
STINGRAY PT      0600   76 79   50/ 10/ 12 1020.7F   1/ 2
YORK RVR RNG VA  0500   76      20/  9/  9 1019.9R
YORKTOWN VA      0512   73 80  360/  6/  7 1020.1R
JAMESTOWN VA     0600   70 81   20/  4/  4   N/A
DOMINION TERM VA 0500   74      30/  4/  5 1020.3R
KIPTOPEKE VA     0500      79   40/  5/  7   N/A
CHES BAY BRIDGE  0500   76 79   20/ 11/ 12 1019.7S
CAPE HENRY VA    0500   76      20/ 10/ 12   N/A
CHESAPEAKE LGHT  0500   75      40/  8/ 10 1020.8R
WILLOUBY STN VA  0500   76      30/  8/ 10 1021.2R
CAPE HENRY BUOY  0528      79                N/A     3/10   2/11
1ST LANDING BUOY 0600      78              1019.8F   1/ 3
CAPE CHARLES BUO 0526      79                N/A     3/10   2/10
OFFSHORE WE BUOY 0511      78                N/A     3/ 9   3/ 9
64NM E OF VA BCH 0550   77 79   30/ 12/ 17 1019.1F   4/ 9   3/ 9
DUCK PIER NC     0500   76 78   50/ 14/ 16 1019.0F
44100 DUCK FRF   0524      78                N/A     4/ 6   2/13
44056 DUCK FRF   0511      78                N/A     4/ 9   2/12
OREGON INLET NC  0500   76 78   20/ 14/ 19 1018.8S
HATTERAS NC      0500   76 80   50/  7/ 13 1018.1R
DIAMOND SHLS NC  0550   78 83   40/ 12/ 14 1018.3R   4/ 8   3/ 8


USA.gov is the U.S. government's official web portal to all federal, state and local government web resources and services.